Location: Jackson Park
(37.2862°N, 79.9123°W)
Time: 01:16:24
(UTC+00:00)

SR - Pass Details

Date: 16 May 2026
Orbit: 567 x 853 km, 66.7° (Epoch: 11 June)

Event Time Altitude Azimuth Distance (km) Brightness Sun altitude
Rises 20:37:47 0° 337° (NNW) 3,387 ? 42.7°
Reaches altitude 10° 20:40:19 10° 343° (NNW) 2,469 ? 42.2°
Maximum altitude 20:45:54 49° 58° (ENE) 1,090 ? 41.1°
Drops below altitude 10° 20:51:26 10° 132° (SE) 2,458 ? 40.0°
Sets 20:53:57 0° 138° (SE) 3,370 ? 39.5°
